This is the latest recevied weather packets stored in our database for station/object N0EDB-13. If no packets are shown the sender has not sent any weather packets the latest 10 day(s).
| Time | Temp. | Humidity | Pressure | Rain* | Wind** | Luminosity | Snow |
|---|---|---|---|---|---|---|---|
| 1777535437 | 7.78° C | 64% | 1515 hPa | 0 mm | - | 0 W/m² | - |
| 1777535137 | 7.78° C | 64% | 1515.1 hPa | 0 mm | - | 0 W/m² | - |
| 1777534836 | 7.78° C | 64% | 1515.1 hPa | 0 mm | - | 0 W/m² | - |
| 1777534535 | 7.78° C | 64% | 1515.4 hPa | 0 mm | - | 0 W/m² | - |
| 1777534234 | 7.78° C | 65% | 1515.8 hPa | 0 mm | - | 0 W/m² | - |
| 1777533934 | 7.78° C | 65% | 1516.2 hPa | 0 mm | - | 0 W/m² | - |
| 1777533633 | 7.78° C | 66% | 1516.4 hPa | 0 mm | - | 0 W/m² | - |
| 1777533333 | 7.22° C | 67% | 1516.7 hPa | 0 mm | - | 0 W/m² | - |
| 1777533033 | 7.22° C | 67% | 1517.1 hPa | 0 mm | - | 0 W/m² | - |
| 1777532732 | 7.22° C | 68% | 1517.4 hPa | 0 mm | - | 0 W/m² | - |
| 1777532432 | 7.22° C | 69% | 1517.5 hPa | 0 mm | - | 0 W/m² | - |
| 1777532131 | 7.22° C | 69% | 1517.5 hPa | 0 mm | - | 0 W/m² | - |
| 1777531831 | 7.22° C | 69% | 1517.4 hPa | 0 mm | - | 0 W/m² | - |
| 1777531530 | 7.78° C | 69% | 1517.1 hPa | 0 mm | - | 0 W/m² | - |
| 1777531229 | 7.78° C | 67% | 1517 hPa | 0 mm | - | 0 W/m² | - |
| 1777530928 | 7.78° C | 64% | 1516.8 hPa | 0 mm | - | 0 W/m² | - |
| 1777530628 | 7.78° C | 63% | 1516.8 hPa | 0 mm | - | 0 W/m² | - |
| 1777530328 | 7.78° C | 63% | 1516.9 hPa | 0 mm | - | 0 W/m² | - |
| 1777530027 | 7.78° C | 64% | 1516.7 hPa | 0 mm | - | 0 W/m² | - |
| 1777529727 | 7.78° C | 62% | 1516.3 hPa | 0 mm | - | 0 W/m² | - |
| 1777529427 | 7.78° C | 59% | 1515.7 hPa | 0 mm | - | 0 W/m² | - |
| 1777529125 | 8.33° C | 59% | 1514.8 hPa | 0 mm | - | 0 W/m² | - |
| 1777528825 | 8.33° C | 59% | 1514.4 hPa | 0 mm | - | 0 W/m² | - |
| 1777528524 | 8.33° C | 61% | 1514.2 hPa | 0 mm | - | 0 W/m² | - |
| 1777528223 | 8.89° C | 61% | 1513.9 hPa | 0 mm | - | 0 W/m² | - |
* Rain latest hour (hover to see other rain measurements)
** Current wind speed in m/s (hover to see current wind gust speed)